Tracking 19242 objects as of 20-Sep-2018
HD Live streaming from Space Station
objects crossing your sky now

FENGYUN 1C DEB

Track FENGYUN 1C DEB now!
10-day predictions


NORAD ID: 37588
Int'l Code: 1999-025EKG
Perigee: 828.5 km
Apogee: 967.2 km
Inclination: 98.2 °
Period: 102.8 minutes
Semi major axis: 7268 km
RCS: 0.0068 m2 (small)
Launch date: May 10, 1999
Source: People's Republic of China (PRC)
Launch site: Taiyaun Space Center, China (TSC)

Note: This is SATELLITE DEBRIS
aabbcc
Your satellite tracking list
Your tracking list is empty




NASA's NSSDC Master Catalog

Two Line Element Set (TLE):
1 37588U 99025EKG 18261.57330039  .00000841  00000-0  56446-3 0  9995
2 37588  98.1537 176.3544 0095358  36.8307  87.3304 14.00887139544057
Source of the keplerian elements: AFSPC